Simultaneous Nadir Overpasses (SNOs) Predictions

Prediction of SNOs between GOES-14 and NPP Satellite Orbit:

Table of predicted SNOs for the next 14.0 days since TLE Epoch: 1/13/2024
Index Date Time (GOES-14) GOES-14 Lat,Lon NPP Lat,Lon Distance(km) Time Diff (sec)
1 01/14/2024 08:43:33 -0.06,-108.56 0.20,-109.83 144.74 80
2 01/15/2024 08:27:28 -0.06,-108.56 -0.80,-105.30 371.27 80
3 01/16/2024 20:46:46 0.06,-108.56 -0.37,-110.61 233.51 80
4 01/17/2024 20:30:41 0.06,-108.56 0.63,-106.08 282.67 80
5 01/19/2024 08:52:29 -0.06,-108.55 0.55,-111.35 318.62 80
6 01/20/2024 08:33:45 -0.05,-108.55 -0.46,-106.82 197.46 80
7 01/21/2024 20:53:01 0.05,-108.55 -0.75,-112.12 407.44 80
8 01/22/2024 20:36:57 0.04,-108.54 0.26,-107.59 108.57 80
9 01/24/2024 08:58:45 -0.04,-108.53 0.91,-112.86 492.82 80
10 01/25/2024 08:37:21 -0.04,-108.53 -0.10,-108.33 23.37 80
